sat.trackr.live / text

‹ back to catalog

STARLINK-32521

NORAD 62117 · 2024-222D

PAYLOAD ACTIVE UNKNOWN

§ Identity

Operator
Country
US
Launch date
2024-11-27
Launch site
AFETR
Launch vehicle
Mass (kg)
RCS (m²)

Purposes: comms

External: N2YO · Heavens-Above · Gunter

§ Orbital elements

Epoch: 2026-09-19T23:28:17.823648Z

Period
94.27 min
Inclination
43.0049°
Eccentricity
0.0001096
Mean motion
15.27596692 rev/d
Perigee alt
482.2 km
Apogee alt
483.8 km
Semi-major
6,861.1 km
B*
4.7196e-4
RAAN
115.3026°
Arg perigee
272.5006°
Mean anomaly
87.5720°
Rev number
10,250

§ Raw data

STARLINK-325211 62117U 24222D   26262.97798407  .00012754  00000+0  47196-3 0  99962 62117  43.0049 115.3026 0001096 272.5006  87.5720 15.27596692102504

JSON: /api/v1/satellites/62117 · /tle

For live sub-satellite position, see the globe view (requires WebGL).

§ Visibility from observer

Set your observer location to see the next 7 days of passes ≥ 10°. The values pass through the URL so the page stays shareable.

No JS? Fill the form by hand. The geolocation button needs JavaScript.